Hourly Data Report for September 11, 2017

All times are specified in Local Standard Time (LST). Add 1 hour to adjust for Daylight Saving Time where and when it is observed.

WOODSTOCK NEWBRIDGE
NEW BRUNSWICK

46°09'08.000" N
67°32'34.000" W
154.00 m
8105603
71606
EWD

Download Data

Hourly Data (September 2017)
Hourly Data Report for September 11, 2017
Temp Definition
°C
Dew Point Temp Definition
°C
Rel Hum Definition
%
Wind Dir Definition
10's deg

Wind Spd Definition
km/h
Visibility Definition
km
Stn Press Definition
kPa
Hmdx Definition


Wind Chill Definition


Weather Definition


TIME
00:00 9.8 8.2 90 29 5   100.46     LegendNANA
01:00 10.4 8.0 85 29 5   100.41     LegendNANA
02:00 11.0 8.2 83 28 7   100.35     LegendNANA
03:00 10.0 7.6 85 28 5   100.32     LegendNANA
04:00 9.9 7.7 86 28 6   100.28     LegendNANA
05:00 8.6 7.1 90 28 4   100.28     LegendNANA
06:00 7.3 6.6 95 28 2   100.31     LegendNANA
07:00 10.6 8.1 85 31 4   100.35     LegendNANA
08:00 12.6 8.7 77 32 7   100.37     LegendNANA
09:00 14.1 9.2 72 31 11   100.34     LegendNANA
10:00 15.9 9.7 66 32 11   100.33     LegendNANA
11:00 18.2 10.6 61 32 10   100.26     LegendNANA
12:00 19.6 10.5 56 30 10   100.21     LegendNANA
13:00 21.2 11.0 52 33 12   100.16     LegendNANA
14:00 21.8 11.3 51 31 11   100.09     LegendNANA
15:00 22.6 12.0 51 31 12   100.02 25   LegendNANA
16:00 22.8 11.9 50 30 10   99.93 25   LegendNANA
17:00 22.3 11.5 50 31 10   99.91     LegendNANA
18:00 21.0 11.5 55 33 5   99.88     LegendNANA
19:00 18.3 12.0 67 34 3   99.88     LegendNANA
20:00 14.2 11.7 85 34 3   99.88     LegendNANA
21:00 16.1 10.6 70 31 5   99.87     LegendNANA
22:00 14.3 10.0 75 31 3   99.87     LegendNANA
23:00 10.2 8.9 92   0   99.90     LegendNANA

Notes on Data Quality.

Legend

  • E = Estimated
  • M = Missing
  • NA = Not Available
  • ‡ = Partner data that is not subject to review by the National Climate Archives
Date modified: